Time,TemperatureF,DewpointF,PressureIn,WindDirection,WindDirectionDegrees,WindSpeedMPH,WindSpeedGustMPH,Humidity,HourlyPrecipIn,Conditions,Clouds,dailyrainin,SolarRadiationWatts/m^2,SoftwareType,DateUTC
2013-03-01 00:01:00,29.0,27.0,-100.00,West,273,4.0,12.0,94,0.00,,,0.00,0.000000,,2013-03-01 05:01:00,
2013-03-01 00:33:00,29.0,27.0,-100.00,West,273,4.0,12.0,94,0.00,,,0.00,0.000000,,2013-03-01 05:33:00,
2013-03-01 00:42:00,29.0,27.0,-100.00,West,273,4.0,12.0,94,0.00,,,0.00,0.000000,,2013-03-01 05:42:00,
2013-03-01 00:53:00,29.0,27.0,-100.00,West,273,4.0,12.0,94,0.00,,,0.00,0.000000,,2013-03-01 05:53:00,
2013-03-01 01:01:00,29.0,27.0,-100.00,WSW,251,2.0,6.0,94,0.00,,,0.00,0.000000,,2013-03-01 06:01:00,
2013-03-01 01:32:00,29.0,27.0,-100.00,WSW,251,2.0,6.0,94,0.00,,,0.00,0.000000,,2013-03-01 06:32:00,
2013-03-01 01:42:00,29.0,27.0,-100.00,WSW,251,2.0,6.0,94,0.00,,,0.00,0.000000,,2013-03-01 06:42:00,
2013-03-01 01:53:00,29.0,27.0,-100.00,WSW,251,2.0,6.0,94,0.00,,,0.00,0.000000,,2013-03-01 06:53:00,
2013-03-01 02:01:00,28.0,27.0,-100.00,West,261,4.0,11.0,94,0.00,,,0.00,0.000000,,2013-03-01 07:01:00,
2013-03-01 02:33:00,28.0,27.0,-100.00,West,261,4.0,11.0,94,0.00,,,0.00,0.000000,,2013-03-01 07:33:00,
2013-03-01 02:42:00,28.0,27.0,-100.00,West,261,4.0,11.0,94,0.00,,,0.00,0.000000,,2013-03-01 07:42:00,
2013-03-01 02:52:00,28.0,27.0,-100.00,West,261,4.0,11.0,94,0.00,,,0.00,0.000000,,2013-03-01 07:52:00,
2013-03-01 03:01:00,28.0,27.0,-100.00,West,269,3.0,8.0,95,0.00,,,0.00,0.000000,,2013-03-01 08:01:00,
2013-03-01 03:22:00,28.0,27.0,-100.00,West,269,3.0,8.0,95,0.00,,,0.00,0.000000,,2013-03-01 08:22:00,
2013-03-01 03:33:00,28.0,27.0,-100.00,West,269,3.0,8.0,95,0.00,,,0.00,0.000000,,2013-03-01 08:33:00,
2013-03-01 03:43:00,28.0,27.0,-100.00,West,269,3.0,8.0,95,0.00,,,0.00,0.000000,,2013-03-01 08:43:00,
2013-03-01 03:53:00,28.0,27.0,-100.00,West,269,3.0,8.0,95,0.00,,,0.00,0.000000,,2013-03-01 08:53:00,
2013-03-01 04:01:00,28.0,27.0,-100.00,West,271,2.0,6.0,95,0.00,,,0.00,0.000000,,2013-03-01 09:01:00,
2013-03-01 04:22:00,28.0,27.0,-100.00,West,271,2.0,6.0,95,0.00,,,0.00,0.000000,,2013-03-01 09:22:00,
2013-03-01 04:32:00,28.0,27.0,-100.00,West,271,2.0,6.0,95,0.00,,,0.00,0.000000,,2013-03-01 09:32:00,
2013-03-01 04:42:00,28.0,27.0,-100.00,West,271,2.0,6.0,95,0.00,,,0.00,0.000000,,2013-03-01 09:42:00,
2013-03-01 04:53:00,28.0,27.0,-100.00,West,271,2.0,6.0,95,0.00,,,0.00,0.000000,,2013-03-01 09:53:00,
2013-03-01 05:01:00,28.0,27.0,-100.00,NW,312,1.0,4.0,94,0.00,,,0.00,0.000000,,2013-03-01 10:01:00,
2013-03-01 05:32:00,28.0,27.0,-100.00,NW,312,1.0,4.0,94,0.00,,,0.00,0.000000,,2013-03-01 10:32:00,
2013-03-01 05:42:00,28.0,27.0,-100.00,NW,312,1.0,4.0,94,0.00,,,0.00,0.000000,,2013-03-01 10:42:00,
2013-03-01 05:53:00,28.0,27.0,-100.00,NW,312,1.0,4.0,94,0.00,,,0.00,0.000000,,2013-03-01 10:53:00,
2013-03-01 06:01:00,28.0,25.0,-100.00,NW,307,5.0,11.0,89,0.00,,,0.00,0.000000,,2013-03-01 11:01:00,
2013-03-01 06:32:00,28.0,25.0,-100.00,NW,307,5.0,11.0,89,0.00,,,0.00,0.000000,,2013-03-01 11:32:00,
2013-03-01 06:42:00,28.0,25.0,-100.00,NW,307,5.0,11.0,89,0.00,,,0.00,0.000000,,2013-03-01 11:42:00,
2013-03-01 06:53:00,28.0,25.0,-100.00,NW,307,5.0,11.0,89,0.00,,,0.00,0.000000,,2013-03-01 11:53:00,
2013-03-01 07:01:00,27.0,24.0,-100.00,NW,312,3.0,9.0,90,0.00,,,0.00,0.000000,,2013-03-01 12:01:00,
2013-03-01 07:33:00,27.0,24.0,-100.00,NW,312,3.0,9.0,90,0.00,,,0.00,0.000000,,2013-03-01 12:33:00,
2013-03-01 07:42:00,27.0,24.0,-100.00,NW,312,3.0,9.0,90,0.00,,,0.00,0.000000,,2013-03-01 12:42:00,
2013-03-01 07:52:00,27.0,24.0,-100.00,NW,312,3.0,9.0,90,0.00,,,0.00,0.000000,,2013-03-01 12:52:00,
2013-03-01 08:01:00,27.0,25.0,-100.00,WNW,294,2.0,6.0,91,0.00,,,0.00,4.000000,,2013-03-01 13:01:00,
2013-03-01 08:32:00,27.0,25.0,-100.00,WNW,294,2.0,6.0,91,0.00,,,0.00,4.000000,,2013-03-01 13:32:00,
2013-03-01 08:42:00,27.0,25.0,-100.00,WNW,294,2.0,6.0,91,0.00,,,0.00,4.000000,,2013-03-01 13:42:00,
2013-03-01 08:52:00,27.0,25.0,-100.00,WNW,294,2.0,6.0,91,0.00,,,0.00,4.000000,,2013-03-01 13:52:00,
2013-03-01 09:01:00,28.0,24.0,-100.00,WNW,297,5.0,11.0,86,0.00,,,0.00,15.000000,,2013-03-01 14:01:00,
2013-03-01 09:32:00,28.0,24.0,-100.00,WNW,297,5.0,11.0,86,0.00,,,0.00,15.000000,,2013-03-01 14:32:00,
2013-03-01 09:42:00,28.0,24.0,-100.00,WNW,297,5.0,11.0,86,0.00,,,0.00,15.000000,,2013-03-01 14:42:00,
2013-03-01 09:52:00,28.0,24.0,-100.00,WNW,297,5.0,11.0,86,0.00,,,0.00,15.000000,,2013-03-01 14:52:00,
2013-03-01 10:01:00,29.0,24.0,-100.00,WNW,301,4.0,10.0,81,0.00,,,0.00,31.000000,,2013-03-01 15:01:00,
2013-03-01 10:21:00,29.0,24.0,-100.00,WNW,301,4.0,10.0,81,0.00,,,0.00,31.000000,,2013-03-01 15:21:00,
2013-03-01 10:32:00,29.0,24.0,-100.00,WNW,301,4.0,10.0,81,0.00,,,0.00,31.000000,,2013-03-01 15:32:00,
2013-03-01 10:42:00,29.0,24.0,-100.00,WNW,301,4.0,10.0,81,0.00,,,0.00,31.000000,,2013-03-01 15:42:00,
2013-03-01 10:52:00,29.0,24.0,-100.00,WNW,301,4.0,10.0,81,0.00,,,0.00,31.000000,,2013-03-01 15:52:00,
2013-03-01 11:01:00,28.0,24.0,-100.00,NW,304,6.0,10.0,84,0.00,,,0.00,26.000000,,2013-03-01 16:01:00,
2013-03-01 11:32:00,28.0,24.0,-100.00,NW,304,6.0,10.0,84,0.00,,,0.00,26.000000,,2013-03-01 16:32:00,
2013-03-01 11:42:00,28.0,24.0,-100.00,NW,304,6.0,10.0,84,0.00,,,0.00,26.000000,,2013-03-01 16:42:00,
2013-03-01 11:52:00,28.0,24.0,-100.00,NW,304,6.0,10.0,84,0.00,,,0.00,26.000000,,2013-03-01 16:52:00,
2013-03-01 12:01:00,28.0,24.0,-100.00,WNW,285,6.0,11.0,85,0.00,,,0.00,28.000000,,2013-03-01 17:01:00,
2013-03-01 12:32:00,28.0,24.0,-100.00,WNW,285,6.0,11.0,85,0.00,,,0.00,28.000000,,2013-03-01 17:32:00,
2013-03-01 12:42:00,28.0,24.0,-100.00,WNW,285,6.0,11.0,85,0.00,,,0.00,28.000000,,2013-03-01 17:42:00,
2013-03-01 12:52:00,28.0,24.0,-100.00,WNW,285,6.0,11.0,85,0.00,,,0.00,28.000000,,2013-03-01 17:52:00,
2013-03-01 13:01:00,29.0,25.0,-100.00,West,278,5.0,11.0,83,0.00,,,0.00,35.000000,,2013-03-01 18:01:00,
2013-03-01 13:32:00,29.0,25.0,-100.00,West,278,5.0,11.0,83,0.00,,,0.00,35.000000,,2013-03-01 18:32:00,
2013-03-01 13:42:00,29.0,25.0,-100.00,West,278,5.0,11.0,83,0.00,,,0.00,35.000000,,2013-03-01 18:42:00,
2013-03-01 13:52:00,29.0,25.0,-100.00,West,278,5.0,11.0,83,0.00,,,0.00,35.000000,,2013-03-01 18:52:00,
2013-03-01 14:01:00,28.0,24.0,-100.00,WNW,289,7.0,12.0,85,0.00,,,0.00,36.000000,,2013-03-01 19:01:00,
2013-03-01 14:22:00,28.0,24.0,-100.00,WNW,289,7.0,12.0,85,0.00,,,0.00,36.000000,,2013-03-01 19:22:00,
2013-03-01 14:32:00,28.0,24.0,-100.00,WNW,289,7.0,12.0,85,0.00,,,0.00,36.000000,,2013-03-01 19:32:00,
2013-03-01 14:42:00,28.0,24.0,-100.00,WNW,289,7.0,12.0,85,0.00,,,0.00,36.000000,,2013-03-01 19:42:00,
2013-03-01 14:52:00,28.0,24.0,-100.00,WNW,289,7.0,12.0,85,0.00,,,0.00,36.000000,,2013-03-01 19:52:00,
2013-03-01 15:01:00,27.0,24.0,-100.00,WNW,287,6.0,12.0,87,0.00,,,0.00,25.000000,,2013-03-01 20:01:00,
2013-03-01 15:22:00,27.0,24.0,-100.00,WNW,287,6.0,12.0,87,0.00,,,0.00,25.000000,,2013-03-01 20:22:00,
2013-03-01 15:32:00,27.0,24.0,-100.00,WNW,287,6.0,12.0,87,0.00,,,0.00,25.000000,,2013-03-01 20:32:00,
2013-03-01 15:42:00,27.0,24.0,-100.00,WNW,287,6.0,12.0,87,0.00,,,0.00,25.000000,,2013-03-01 20:42:00,
2013-03-01 15:52:00,27.0,24.0,-100.00,WNW,287,6.0,12.0,87,0.00,,,0.00,25.000000,,2013-03-01 20:52:00,
2013-03-01 16:01:00,27.0,24.0,-100.00,WNW,283,5.0,10.0,88,0.00,,,0.00,15.000000,,2013-03-01 21:01:00,
2013-03-01 16:22:00,27.0,24.0,-100.00,WNW,283,5.0,10.0,88,0.00,,,0.00,15.000000,,2013-03-01 21:22:00,
2013-03-01 16:32:00,27.0,24.0,-100.00,WNW,283,5.0,10.0,88,0.00,,,0.00,15.000000,,2013-03-01 21:32:00,
2013-03-01 16:42:00,27.0,24.0,-100.00,WNW,283,5.0,10.0,88,0.00,,,0.00,15.000000,,2013-03-01 21:42:00,
2013-03-01 16:52:00,27.0,24.0,-100.00,WNW,283,5.0,10.0,88,0.00,,,0.00,15.000000,,2013-03-01 21:52:00,
2013-03-01 17:01:00,26.0,24.0,-100.00,WNW,292,5.0,9.0,91,0.00,,,0.00,9.000000,,2013-03-01 22:01:00,
2013-03-01 17:32:00,26.0,24.0,-100.00,WNW,292,5.0,9.0,91,0.00,,,0.00,9.000000,,2013-03-01 22:32:00,
2013-03-01 17:42:00,26.0,24.0,-100.00,WNW,292,5.0,9.0,91,0.00,,,0.00,9.000000,,2013-03-01 22:42:00,
2013-03-01 17:52:00,26.0,24.0,-100.00,WNW,292,5.0,9.0,91,0.00,,,0.00,9.000000,,2013-03-01 22:52:00,
2013-03-01 18:01:00,25.0,22.0,-100.00,NW,319,3.0,10.0,88,0.00,,,0.00,2.000000,,2013-03-01 23:01:00,
2013-03-01 18:32:00,25.0,22.0,-100.00,NW,319,3.0,10.0,88,0.00,,,0.00,2.000000,,2013-03-01 23:32:00,
2013-03-01 18:42:00,25.0,22.0,-100.00,NW,319,3.0,10.0,88,0.00,,,0.00,2.000000,,2013-03-01 23:42:00,
2013-03-01 18:52:00,25.0,22.0,-100.00,NW,319,3.0,10.0,88,0.00,,,0.00,2.000000,,2013-03-01 23:52:00,
2013-03-01 19:01:00,25.0,23.0,-100.00,WNW,287,4.0,9.0,92,0.00,,,0.00,0.000000,,2013-03-02 00:01:00,
2013-03-01 19:32:00,25.0,23.0,-100.00,WNW,287,4.0,9.0,92,0.00,,,0.00,0.000000,,2013-03-02 00:32:00,
2013-03-01 19:42:00,25.0,23.0,-100.00,WNW,287,4.0,9.0,92,0.00,,,0.00,0.000000,,2013-03-02 00:42:00,
2013-03-01 19:52:00,25.0,23.0,-100.00,WNW,287,4.0,9.0,92,0.00,,,0.00,0.000000,,2013-03-02 00:52:00,
2013-03-01 20:01:00,24.0,22.0,-100.00,West,280,4.0,12.0,91,0.00,,,0.00,0.000000,,2013-03-02 01:01:00,
2013-03-01 20:32:00,24.0,22.0,-100.00,West,280,4.0,12.0,91,0.00,,,0.00,0.000000,,2013-03-02 01:32:00,
2013-03-01 20:42:00,24.0,22.0,-100.00,West,280,4.0,12.0,91,0.00,,,0.00,0.000000,,2013-03-02 01:42:00,
2013-03-01 20:52:00,24.0,22.0,-100.00,West,280,4.0,12.0,91,0.00,,,0.00,0.000000,,2013-03-02 01:52:00,
2013-03-01 21:01:00,24.0,22.0,-100.00,WNW,286,4.0,10.0,93,0.00,,,0.00,0.000000,,2013-03-02 02:01:00,
2013-03-01 21:32:00,24.0,22.0,-100.00,WNW,286,4.0,10.0,93,0.00,,,0.00,0.000000,,2013-03-02 02:32:00,
2013-03-01 21:42:00,24.0,22.0,-100.00,WNW,286,4.0,10.0,93,0.00,,,0.00,0.000000,,2013-03-02 02:42:00,
2013-03-01 21:52:00,24.0,22.0,-100.00,WNW,286,4.0,10.0,93,0.00,,,0.00,0.000000,,2013-03-02 02:52:00,
2013-03-01 22:01:00,24.0,22.0,-100.00,West,272,5.0,8.0,93,0.00,,,0.00,0.000000,,2013-03-02 03:01:00,
2013-03-01 22:32:00,24.0,22.0,-100.00,West,272,5.0,8.0,93,0.00,,,0.00,0.000000,,2013-03-02 03:32:00,
2013-03-01 22:42:00,24.0,22.0,-100.00,West,272,5.0,8.0,93,0.00,,,0.00,0.000000,,2013-03-02 03:42:00,
2013-03-01 22:52:00,24.0,22.0,-100.00,West,272,5.0,8.0,93,0.00,,,0.00,0.000000,,2013-03-02 03:52:00,
2013-03-01 23:01:00,23.0,21.0,-100.00,WNW,284,6.0,10.0,92,0.00,,,0.00,0.000000,,2013-03-02 04:01:00,
2013-03-01 23:32:00,23.0,21.0,-100.00,WNW,284,6.0,10.0,92,0.00,,,0.00,0.000000,,2013-03-02 04:32:00,
2013-03-01 23:42:00,23.0,21.0,-100.00,WNW,284,6.0,10.0,92,0.00,,,0.00,0.000000,,2013-03-02 04:42:00,
2013-03-01 23:52:00,23.0,21.0,-100.00,WNW,284,6.0,10.0,92,0.00,,,0.00,0.000000,,2013-03-02 04:52:00,